DW1375 Weather Reports


time (UTC)temp
C
wind
direction
speed
KPH
gust
KPH
rain 1hr
cm
rain 24hr
cm
rain mn
cm
humidity
%
barometer
mb
20260510190059 26 137 1.6 6.4 0.00 0.03 0.03 64 1017.5
20260510184546 26 317 3.2 8.0 0.00 0.03 0.03 63 1017.7
20260510183044 26 289 0.0 6.4 0.00 0.03 0.03 69 1017.8
20260510181555 25 59 3.2 6.4 0.00 0.03 0.03 68 1018.1
20260510180044 25 105 1.6 6.4 0.00 0.03 0.03 71 1018.1
20260510174547 25 99 1.6 6.4 0.00 0.03 0.03 72 1018.3
20260510173040 24 137 1.6 4.8 0.00 0.03 0.03 75 1018.4
20260510171555 25 67 0.0 4.8 0.00 0.03 0.03 76 1018.5
20260510170044 23 3 1.6 4.8 0.00 0.03 0.03 80 1018.6
20260510164533 22 50 3.2 11.3 0.00 0.03 0.03 81 1018.8
20260510163038 22 45 1.6 6.4 0.00 0.03 0.03 81 1018.9
20260510161527 21 74 0.0 4.8 0.00 0.03 0.03 85 1019.0
20260510160031 21 54 4.8 6.4 0.00 0.03 0.03 86 1019.1
20260510154521 21 3 1.6 6.4 0.00 0.03 0.03 88 1019.1
20260510153030 20 3 1.6 3.2 0.00 0.03 0.03 90 1019.1
20260510151520 20 3 1.6 4.8 0.00 0.03 0.03 91 1019.0
20260510150016 20 3 0.0 3.2 0.00 0.03 0.03 93 1019.0
20260510144513 19 3 1.6 3.2 0.00 0.03 0.03 94 1019.0
20260510143012 18 3 0.0 1.6 0.00 0.03 0.03 94 1019.0
20260510141507 18 3 0.0 3.2 0.00 0.03 0.03 94 1019.0
20260510140007 18 3 0.0 4.8 0.00 0.03 0.03 95 1018.9
20260510134505 18 3 0.0 3.2 0.00 0.03 0.03 94 1018.9
20260510133103 18 3 0.0 3.2 0.00 0.03 0.03 94 1018.6
20260510131600 18 3 0.0 1.6 0.00 0.03 0.03 94 1018.7
20260510130057 17 3 0.0 3.2 0.00 0.03 0.03 94 1018.7
20260510124601 17 3 0.0 1.6 0.03 0.03 0.03 94 1018.6
20260510123053 17 3 0.0 1.6 0.03 0.03 0.03 94 1018.3
20260510121548 16 3 0.0 0.0 0.03 0.03 0.03 94 1018.2
20260510120045 16 3 0.0 1.6 0.03 0.03 0.03 94 1017.7
20260510114546 16 3 0.0 0.0 0.00 0.00 0.00 94 1017.8
20260510113041 16 3 0.0 0.0 0.00 0.00 0.00 94 1017.4
20260510111534 16 3 0.0 0.0 0.00 0.00 0.00 94 1017.2
20260510110046 16 3 0.0 0.0 0.00 0.00 0.00 94 1017.0
20260510104532 16 3 0.0 0.0 0.00 0.00 0.00 94 1016.5
20260510103031 16 3 0.0 0.0 0.00 0.00 0.00 94 1016.2
20260510101527 16 3 0.0 0.0 0.00 0.00 0.00 94 1016.1
20260510100034 16 3 0.0 0.0 0.00 0.00 0.00 94 1015.8
20260510094535 16 3 0.0 0.0 0.00 0.00 0.00 94 1015.6
20260510093026 16 3 0.0 0.0 0.00 0.00 0.00 94 1015.3
20260510091526 16 3 0.0 0.0 0.00 0.00 0.00 94 1015.2
20260510090022 16 3 0.0 0.0 0.00 0.00 0.00 94 1015.0
20260510084522 16 3 0.0 0.0 0.00 0.00 0.00 94 1015.0
20260510083020 16 3 0.0 0.0 0.00 0.00 0.00 94 1014.7
20260510081529 16 3 0.0 0.0 0.00 0.00 0.00 94 1014.6
20260510080039 16 3 0.0 0.0 0.00 0.00 0.00 94 1014.7
20260510074520 16 3 0.0 0.0 0.00 0.00 0.00 93 1014.7
20260510073033 16 3 0.0 0.0 0.00 0.00 0.00 94 1014.5
20260510071519 16 3 0.0 0.0 0.00 0.00 0.00 93 1014.6
20260510070016 16 3 0.0 0.0 0.00 0.00 0.00 94 1014.6
20260510064547 16 3 0.0 0.0 0.00 0.00 0.00 93 1014.7
20260510063041 16 3 0.0 0.0 0.00 0.00 0.00 94 1014.9
20260510061540 17 3 0.0 0.0 0.00 0.00 0.00 94 1014.9
20260510060045 17 3 0.0 0.0 0.00 0.00 0.00 93 1015.0
20260510054538 17 3 0.0 0.0 0.00 0.00 0.00 94 1015.1
20260510053036 17 3 0.0 0.0 0.00 0.00 0.00 93 1015.1
20260510051533 17 3 0.0 0.0 0.00 0.00 0.00 93 1015.1
20260510050037 17 3 0.0 0.0 0.00 0.00 0.00 93 1015.3
20260510044532 17 3 0.0 0.0 0.00 0.00 0.00 93 1015.3
20260510043030 17 3 0.0 0.0 0.00 0.00 0.00 93 1015.4
20260510041529 18 3 0.0 0.0 0.00 0.00 0.00 93 1015.2
20260510040031 18 3 0.0 0.0 0.00 0.00 0.00 93 1015.4
20260510034529 18 3 0.0 0.0 0.00 0.00 0.00 93 1015.6
20260510033032 18 3 0.0 0.0 0.00 0.00 0.00 93 1015.8
20260510031530 18 3 0.0 0.0 0.00 0.00 0.00 93 1015.7
20260510030027 18 3 0.0 0.0 0.00 0.00 0.00 93 1015.7
20260510024525 18 3 0.0 0.0 0.00 0.00 0.00 92 1015.5
20260510023023 19 3 0.0 0.0 0.00 0.00 0.00 92 1015.0
20260510021553 19 3 0.0 0.0 0.00 0.00 0.00 92 1014.9
20260510020021 20 3 0.0 0.0 0.00 0.00 0.00 92 1014.8
20260510014531 20 3 0.0 0.0 0.00 0.00 0.00 91 1014.6
20260510013019 20 3 0.0 0.0 0.00 0.00 0.00 90 1014.4
20260510011519 20 3 0.0 0.0 0.00 0.00 0.00 90 1014.2
20260510010032 20 3 0.0 0.0 0.00 0.00 0.00 90 1013.9
20260510004520 21 3 0.0 0.0 0.00 0.00 0.00 89 1013.4
20260510003022 21 3 0.0 1.6 0.00 0.00 0.00 89 1013.2
20260510001516 21 3 0.0 3.2 0.00 0.00 0.00 89 1013.1
20260510000016 21 3 0.0 3.2 0.00 0.00 0.00 88 1013.1
20260509234518 21 3 0.0 1.6 0.00 0.00 0.00 87 1013.0
20260509233014 22 3 1.6 3.2 0.00 0.00 0.00 86 1013.0
20260509231514 22 3 0.0 3.2 0.00 0.00 0.00 84 1012.6
20260509230050 22 3 0.0 1.6 0.00 0.00 0.00 84 1012.8
20260509224545 22 3 0.0 0.0 0.00 0.00 0.00 84 1012.6
20260509223047 23 3 0.0 0.0 0.00 0.00 0.00 80 1012.5
20260509221544 23 3 0.0 1.6 0.00 0.00 0.00 79 1012.4
20260509220048 23 3 0.0 1.6 0.00 0.00 0.00 77 1012.3
20260509214546 23 3 0.0 1.6 0.00 0.00 0.00 73 1012.1
20260509213048 24 3 0.0 1.6 0.00 0.00 0.00 72 1012.1
20260509211541 23 20 0.0 1.6 0.00 0.00 0.00 76 1011.8
20260509210046 24 3 0.0 1.6 0.00 0.00 0.00 71 1011.8
20260509204540 25 3 0.0 4.8 0.00 0.00 0.00 69 1011.7
20260509203037 25 8 0.0 4.8 0.00 0.00 0.00 70 1011.9
20260509201539 24 59 0.0 3.2 0.00 0.00 0.00 72 1012.2
20260509200039 25 59 0.0 1.6 0.00 0.00 0.00 70 1012.3
20260509194550 25 60 0.0 6.4 0.00 0.00 0.00 70 1012.2
20260509193035 24 329 1.6 6.4 0.00 0.00 0.00 70 1012.0
20260509191532 25 334 0.0 6.4 0.00 0.00 0.00 69 1012.4